This demonstration page uses our WeatherBlox Daily Observations layout. Learn more.

39.92423, -83.80882

Hourly Observations for August 20, 2018

Temp ( °F °C ) Dew Point ( °F °C ) Humidity (%) Winds ( mph kmh ) Pressure ( in mb ) Visibility ( mi km ) Precip ( " mm )
12:56 am 00:56 Clear 64 17.8 62 16.7 93 93 E 5 7 30.02 1017 10 16.0934 0 0
1:56 am 01:56 Clear 64 17.8 62 16.7 93 93 E 5 7 30 1016 10 16.0934 0 0
2:56 am 02:56 Clear 62 16.7 61 16.1 96 96 E 5 7 30 1016 10 16.0934 0 0
3:56 am 03:56 Clear 63 17.2 62 16.7 97 97 Calm 30 1016 10 16.0934 0 0
4:56 am 04:56 Clear 61 16.1 61 16.1 100 100 E 5 7 29.99 1016 10 16.0934 0 0
5:56 am 05:56 Clear 61 16.1 61 16.1 100 100 Calm 29.99 1016 10 16.0934 0 0
6:56 am 06:56 Sunny 60 15.6 60 15.6 100 100 E 6 9 29.99 1016 7 11.26538 0 0
7:56 am 07:56 Sunny 65 18.3 64 17.8 97 97 E 5 7 30.01 1016 10 16.0934 0 0
8:56 am 08:56 Sunny 68 20 66 18.9 93 93 ESE 6 9 30.02 1017 10 16.0934 0 0
9:56 am 09:56 Sunny 72 22.2 67 19.4 84 84 ESE 9 15 30.02 1017 10 16.0934 0 0
10:56 am 10:56 Sunny 74 23.3 69 20.6 85 85 SE 10 17 30.01 1016 10 16.0934 0 0
11:56 am 11:56 Sunny 77 25 70 21.1 79 79 SE 10 17 29.99 1016 10 16.0934 0 0
12:56 pm 12:56 Partly Cloudy 78 25.6 70 21.1 76 76 SE 14 22 29.97 1015 10 16.0934 0 0
1:56 pm 13:56 Mostly Sunny 79 26.1 70 21.1 74 74 SSE 12 19 29.96 1014 10 16.0934 0 0
2:22 pm 14:22 Mostly Cloudy 81 27 72 22 74 74 SSE 13 20 29.91 1013 10 16.0934 0 0
2:53 pm 14:53 Partly Cloudy 81 27 73 23 79 79 SSE 12 19 29.88 1012 10 16.0934 0 0
2:56 pm 14:56 Partly Cloudy 81 27.2 73 22.8 77 77 SE 13 20 29.93 1014 10 16.0934 0 0
3:56 pm 15:56 Partly Cloudy 80 26.7 73 22.8 79 79 SE 10 17 29.91 1013 10 16.0934 0 0
4:56 pm 16:56 Mostly Cloudy with Light Rain 77 25 74 23.3 90 90 SSE 6 9 29.9 1013 10 16.0934 0 0.0254
5:13 pm 17:13 Cloudy with Nearby Thunderstorms 77 25 75 24 94 94 SE 6 9 29.85 1011 9 14.48406 0.02 0.508
5:33 pm 17:33 Cloudy with Light Rain 73 23 72 22 94 94 SE 8 13 29.88 1012 4 6.43736 0.22 5.588
5:56 pm 17:56 Mostly Cloudy 75 23.9 72 22.2 90 90 S 3 6 29.91 1013 10 16.0934 0.22 5.588
6:56 pm 18:56 Mostly Sunny 74 23.3 74 23.3 100 100 ESE 7 11 29.91 1013 10 16.0934 0 0
7:56 pm 19:56 Sunny 73 22.8 73 22.8 100 100 SSE 6 9 29.9 1013 10 16.0934 0 0
8:56 pm 20:56 Clear with Light Rain 73 22.8 73 22.8 100 100 SSE 6 9 29.91 1013 10 16.0934 0 0.0254
9:56 pm 21:56 Clear 72 22.2 72 22.2 100 100 S 6 9 29.9 1012 10 16.0934 0.04 1.016
10:56 pm 22:56 Clear 70 21.1 70 21.1 100 100 SSE 5 7 29.89 1012 10 16.0934 0 0
11:56 pm 23:56 Clear 70 21.1 70 21.1 100 100 SE 5 7 29.88 1012 9 14.48406 0 0

Powered by AerisWeather